Location: Proctor
(47.8934°N, 114.3048°W)
Time: 16:17:02
(UTC+00:00)

Courier 1B Rocket - Pass Details

Date: 16 June 2024
Orbit: 920 x 1201 km, 28.2° (Epoch: 16 July)

Event Time Altitude Azimuth Distance (km) Brightness Sun altitude
Rises 15:11:17 0° 241° (WSW) 3,997 7.8 32.5°
Reaches altitude 10° 15:15:22 10° 220° (SW) 3,077 7.4 33.2°
Maximum altitude 15:19:35 16° 187° (S) 2,694 7.4 33.9°
Drops below altitude 10° 15:23:51 10° 153° (SSE) 3,124 8.1 34.6°
Sets 15:28:03 0° 133° (SE) 4,089 8.9 35.3°
